Location: Unspecified
(0.0000°N, 0.0000°E)
Time: 18:41:17
(UTC+00:00)

deb Briz - Pass Details

Date: 23 February 2026
Orbit: 1858 x 2172 km, 64.9° (Epoch: 11 March)

Event Time Altitude Azimuth Distance (km) Brightness Sun altitude
Rises 02:29:08 0° 185° (S) 5,472 ? -54.8°
Reaches altitude 10° 02:32:45 10° 178° (S) 4,512 ? -54.0°
Maximum altitude 02:43:40 43° 110° (ESE) 2,766 ? -51.3°
Drops below altitude 10° 02:54:55 10° 44° (NE) 4,677 ? -48.6°
Sets 02:58:40 0° 37° (NE) 5,688 ? -47.7°
